Simultaneous Nadir Overpasses (SNOs) Predictions

Prediction of SNOs between LANDSAT-8 and METOP-A Satellite Orbit:

Table of predicted SNOs for the next 14.0 days since TLE Epoch: 12/9/2017
Index Date (LANDSAT-8) Time (LANDSAT-8) Lat,Lon (LANDSAT-8) SZA (LANDSAT-8 ) Date (METOP-A) Time (METOP-A) Lat,Lon (METOP-A) SZA (METOP-A ) Distance(km) Time Diff (sec)
1 12/09/2017 07:37:38 -81.28, -72.09 73.57 12/09/2017 07:37:31 -81.27, -72.22 73.59 2.18 7
2 12/09/2017 08:27:04 81.28, 95.67 106.45 12/09/2017 08:28:10 81.29, 95.65 106.48 0.55 66
3 12/12/2017 03:11:53 -81.28, -5.62 73.36 12/12/2017 03:11:51 -81.28, -5.51 73.35 1.83 2
4 12/12/2017 04:01:19 81.28, 162.11 106.66 12/12/2017 04:02:31 81.28, 161.94 106.67 2.91 72
5 12/14/2017 21:56:41 81.26,-107.16 106.74 12/14/2017 21:55:33 81.26,-107.34 106.69 3.11 68
6 12/14/2017 22:46:07 -81.28, 60.82 73.22 12/14/2017 22:46:12 -81.28, 60.90 73.20 1.35 5
7 12/17/2017 17:30:55 81.28, -40.40 106.87 12/17/2017 17:29:55 81.27, -40.49 106.83 1.70 60
8 12/17/2017 18:20:22 -81.28, 127.23 73.14 12/17/2017 18:20:35 -81.28, 127.40 73.11 2.99 13
9 12/20/2017 13:05:10 81.27, 25.95 106.87 12/20/2017 13:04:19 81.28, 26.07 106.87 1.96 51




NCC Satellite Simultaneous Nadir Overpasses (SNOs) Prediction Service
